ICARMODO3 Weather Reports


time (UTC)temp
C
wind
direction
speed
KPH
gust
KPH
rain 1hr
cm
rain 24hr
cm
rain mn
cm
humidity
%
barometer
mb
20260509234510 18 205 0.0 0.0 0.00 0.00 0.00 81 1010.9
20260509233008 19 205 0.0 0.0 0.00 0.00 0.00 80 1010.7
20260509231508 20 205 0.0 1.6 0.00 0.00 0.00 78 1010.5
20260509230007 20 108 0.0 0.0 0.00 0.00 0.00 77 1010.1
20260509224507 20 108 0.0 3.2 0.00 0.00 0.00 76 1009.9
20260509223004 21 176 0.0 0.0 0.00 0.00 0.00 75 1009.7
20260509221503 21 85 0.0 1.6 0.00 0.00 0.00 75 1009.5
20260509220002 21 90 0.0 0.0 0.00 0.00 0.00 75 1009.3
20260509214502 21 90 0.0 1.6 0.00 0.00 0.00 74 1009.3
20260509213117 22 89 0.0 1.6 0.00 0.00 0.00 73 1009.0
20260509211615 22 65 0.0 1.6 0.00 0.00 0.00 71 1009.0
20260509204604 24 74 3.2 6.4 0.00 0.00 0.00 68 1008.8
20260509203039 25 71 1.6 6.4 0.00 0.00 0.00 66 1008.9
20260509201528 26 65 1.6 4.8 0.00 0.00 0.00 62 1008.9
20260509200025 27 73 8.0 14.5 0.00 0.00 0.00 58 1008.8
20260509194523 27 65 8.0 16.1 0.00 0.00 0.00 57 1008.7
20260509193023 27 63 8.0 12.9 0.00 0.00 0.00 55 1008.8
20260509191521 28 40 4.8 12.9 0.00 0.00 0.00 52 1008.8
20260509190054 28 36 4.8 16.1 0.00 0.00 0.00 53 1008.7
20260509184549 28 35 6.4 17.7 0.00 0.00 0.00 51 1008.8
20260509183043 28 80 8.0 14.5 0.00 0.00 0.00 49 1008.8
20260509181545 28 143 1.6 17.7 0.00 0.00 0.00 53 1008.9
20260509180116 28 78 6.4 14.5 0.00 0.00 0.00 53 1009.0
20260509174538 28 56 9.7 16.1 0.00 0.00 0.00 52 1009.2
20260509173034 28 81 3.2 12.9 0.00 0.00 0.00 52 1009.1
20260509171533 28 315 0.0 11.3 0.00 0.00 0.00 53 1009.3
20260509170032 28 90 1.6 16.1 0.00 0.00 0.00 56 1009.5
20260509164532 29 262 1.6 6.4 0.00 0.00 0.00 53 1009.6
20260509163045 28 12 4.8 9.7 0.00 0.00 0.00 55 1009.9
20260509161528 29 42 6.4 14.5 0.00 0.00 0.00 54 1010.0
20260509160024 28 306 1.6 16.1 0.00 0.00 0.00 57 1010.2
20260509154522 27 37 8.0 19.3 0.00 0.00 0.00 56 1010.4
20260509153022 27 87 8.0 16.1 0.00 0.00 0.00 55 1010.6
20260509151518 27 53 6.4 17.7 0.00 0.00 0.00 57 1010.9
20260509150017 27 5 6.4 11.3 0.00 0.00 0.00 58 1011.1
20260509144516 27 40 9.7 20.9 0.00 0.00 0.00 59 1011.4
20260509143013 27 355 1.6 14.5 0.00 0.00 0.00 60 1011.5
20260509141510 27 44 8.0 20.9 0.00 0.00 0.00 60 1011.9
20260509140008 26 46 3.2 17.7 0.00 0.00 0.00 63 1012.1
20260509134506 26 24 8.0 16.1 0.00 0.00 0.00 62 1012.3
20260509133001 26 5 1.6 8.0 0.00 0.00 0.00 68 1012.3
20260509131558 26 23 3.2 11.3 0.00 0.00 0.00 67 1012.4
20260509130055 25 19 1.6 8.0 0.00 0.00 0.00 70 1012.4
20260509124600 23 50 0.0 8.0 0.00 0.00 0.00 76 1012.6
20260509123046 22 232 0.0 3.2 0.00 0.00 0.00 83 1012.8
20260509121541 21 271 1.6 8.0 0.00 0.00 0.00 87 1012.8
20260509120036 20 263 0.0 6.4 0.00 0.00 0.00 90 1012.6
20260509114534 19 225 0.0 3.2 0.00 0.00 0.00 92 1012.4
20260509113023 18 234 0.0 1.6 0.00 0.00 0.00 94 1012.2
20260509111519 17 219 0.0 0.0 0.00 0.00 0.00 95 1012.1
20260509110014 16 219 0.0 0.0 0.00 0.00 0.00 95 1012.0
20260509104511 15 219 0.0 0.0 0.00 0.00 0.00 95 1011.9
20260509103007 14 180 0.0 0.0 0.00 0.00 0.00 96 1011.6
20260509101500 14 180 0.0 0.0 0.00 0.00 0.00 95 1011.5
20260509100110 14 140 0.0 0.0 0.00 0.00 0.00 96 1011.4
20260509094553 14 140 0.0 0.0 0.00 0.00 0.00 96 1011.3
20260509093049 13 140 0.0 0.0 0.00 0.00 0.00 95 1011.1
20260509091549 13 140 0.0 1.6 0.00 0.00 0.00 95 1010.9
20260509090044 13 140 0.0 1.6 0.00 0.03 0.00 95 1010.5
20260509084547 13 153 0.0 1.6 0.00 0.03 0.00 95 1010.4
20260509083040 13 148 0.0 0.0 0.00 0.03 0.00 95 1010.2
20260509081509 13 148 0.0 1.6 0.00 0.03 0.00 95 1010.1
20260509080008 13 142 0.0 1.6 0.00 0.03 0.00 94 1009.9
20260509074503 13 140 0.0 1.6 0.00 0.03 0.00 94 1009.8
20260509073002 13 87 0.0 0.0 0.00 0.03 0.00 94 1009.6
20260509071600 13 85 0.0 1.6 0.00 0.03 0.00 93 1009.5
20260509070101 14 82 0.0 0.0 0.00 0.03 0.00 94 1009.5
20260509064555 14 82 0.0 0.0 0.00 0.03 0.00 93 1009.6
20260509063053 15 82 0.0 0.0 0.00 0.03 0.00 93 1009.6
20260509061556 15 82 0.0 0.0 0.00 0.03 0.00 93 1009.6
20260509060052 15 82 0.0 0.0 0.00 0.03 0.00 93 1009.7
20260509054549 15 82 0.0 0.0 0.00 0.03 0.00 92 1009.7
20260509053051 15 59 0.0 0.0 0.00 0.03 0.00 92 1009.8
20260509051557 15 59 0.0 3.2 0.00 0.03 0.00 93 1009.7
20260509050045 15 132 0.0 1.6 0.00 0.03 0.00 92 1009.6
20260509044515 15 153 0.0 0.0 0.00 0.03 0.00 92 1009.6
20260509043026 15 153 0.0 1.6 0.00 0.03 0.00 91 1009.5
20260509041509 16 153 0.0 3.2 0.00 0.03 0.00 92 1009.6
20260509040007 16 78 0.0 1.6 0.00 0.03 0.00 90 1009.5
20260509034502 16 78 0.0 0.0 0.00 0.03 0.00 91 1009.4
20260509033002 16 78 0.0 0.0 0.00 0.03 0.00 91 1009.4
20260509031558 16 78 0.0 0.0 0.00 0.03 0.00 90 1009.5
20260509030057 16 78 0.0 0.0 0.00 0.03 0.03 91 1009.7
20260509024556 16 78 0.0 0.0 0.00 0.03 0.03 91 1009.8
20260509023056 16 78 0.0 0.0 0.00 0.03 0.03 91 1009.7
20260509021529 16 78 0.0 0.0 0.00 0.03 0.03 90 1009.6
20260509020027 16 78 0.0 1.6 0.00 0.03 0.03 90 1009.6
20260509014521 17 78 0.0 0.0 0.00 0.03 0.03 89 1009.7
20260509013041 17 78 0.0 0.0 0.00 0.03 0.03 88 1009.6
20260509011521 17 78 0.0 0.0 0.00 0.03 0.03 87 1009.6
20260509010025 17 78 0.0 0.0 0.00 0.03 0.03 87 1009.6
20260509004534 18 78 0.0 0.0 0.00 0.03 0.03 86 1009.6
20260509003017 18 78 0.0 0.0 0.00 0.03 0.03 85 1009.6
20260509001516 18 78 0.0 0.0 0.00 0.03 0.03 83 1009.4
20260509000016 18 78 0.0 0.0 0.00 0.03 0.03 82 1009.4